www.pogodaiklimat.ru

Погода и климат >> Архив погоды >> Россия >> Ставропольский край >> Красногвардейское


ПОГОДА в Красногвардейском

  • Прогноз погоды в Красногвардейском
  • Монитор погоды в Красногвардейском

АРХИВ ПОГОДЫ в Красногвардейском

Время (UTC), дата Ветер
(напр.,м/с)
 
Видим.   Явления Облачность Т
(С)
Тd
(С)
f
(%)
Тe
(С)
Тes
(С)
Комфортность P
(гПа)
Po
(гПа)
Тmin
(С)
Tmax
(С)
R
(мм)
R24
(мм)
S
(см)
21 11.07 штиль 0 10 км слаб. ливневой дождь 10/10 600 м
[Cb cap]
+16.5 +15.4 93 +16 +16 1006.1 999.0
00 12.07 штиль 0 4000 м слаб. ливневой дождь 10/10 600 м
[Cb cap]
+15.6 +14.9 96 +15 +15 1006.2 999.1
03 12.07 штиль 0 4000 м слаб. ливневой дождь 10/10 600 м
[Cb cap]
+15.2 +14.8 97 +15 +15 1006.1 999.0 +15.2 18
06 12.07 штиль 0 4000 м слаб. ливневой дождь 10/10 600 м
[Cb cap]
+15.4 +14.8 96 +15 +15 1007.4 1000.3
09 12.07 С 1 20 км {ливн. осадки} 10/10 600 м
[Cb cap]
+19.3 +14.6 74 +22 +22 комфорт 1008.6 1001.6
12 12.07 СЗ 1 20 км {ливн. осадки} 8/8 600 м
[Cb cap]
+24.0 +13.1 51 +26 +29 жарко 1008.7 1001.8
15 12.07 ЮЗ 1 20 км 8/3 600 м
[Cb cap Ci fib]
+23.2 +11.6 48 +26 +27 жарко 1008.8 1001.8 +25.6 3
18 12.07 Ю 1 20 км 3/0
[Ci fib]
+18.8 +14.6 77 +21 +21 комфорт 1009.7 1002.7
21 12.07 Ю 1 20 км 3/0
[Ci fib]
+16.0 +14.0 88 +17 +17 1009.8 1002.7
00 13.07 штиль 0 20 км ясно +14.6 +13.4 93 +14 +14 1008.8 1001.7
03 13.07 штиль 0 20 км 9/0 2000 м
[Ac lent Ci fib]
+14.8 +13.5 92 +14 +15 1009.1 1002.0 +13.6
06 13.07 ЮЗ 2 20 км 10/0 2000 м
[Ac und]
+20.4 +14.3 68 +24 +27 комфорт 1009.6 1002.6
09 13.07 Ю 2 20 км 6/6 600 м
[Cb cap]
+23.5 +13.3 53 +26 +33 жарко 1009.4 1002.4
12 13.07 Ю 3
{10}
20 км {гроза, ливн. осадки} 3/3 600 м
[Cu med, cong Ci fib]
+23.7 +13.0 51 +26 +33 жарко 1008.9 1001.9
15 13.07 Ю 2 10 км гроза, ливневой дождь 10/10 600 м
[Cb cap]
+21.4 +14.8 66 +24 +24 комфорт 1009.9 1002.9 +25.1 5
18 13.07 штиль 0 20 км {гроза, ливн. осадки} ясно +16.7 +15.0 90 +17 +17 1011.2 1004.1
21 13.07 штиль 0 20 км ясно +14.3 +13.2 93 +14 +14 1011.5 1004.4
00 14.07 штиль 0 20 км ясно +13.5 +12.5 94 +13 +13 1011.1 1003.9
03 14.07 штиль 0 10 км 6/0
[Ci fib]
+13.7 +13.1 96 +13 +14 1011.2 1004.0 +12.8 2
06 14.07 ЮЗ 1 20 км 3/0
[Ci fib]
+21.9 +14.7 64 +25 +37 комфорт 1011.2 1004.2
09 14.07 З 1 20 км 6/6 600 м
[Cu med, cong]
+25.7 +11.4 41 +27 +36 жарко 1010.2 1003.3
12 14.07 ЮВ 1 20 км 4/4 600 м
[Cb cap]
+27.9 +10.0 33 +28 +37 жарко 1009.0 1002.1
15 14.07 штиль 0 20 км 6/3 600 м
[Cu med, cong Ci fib]
+27.2 +6.7 27 +27 +28 жарко 1008.5 1001.6 +28.6
18 14.07 штиль 0 20 км 4/0 2000 м
[Ac lent]
+21.7 +13.9 61 +25 +25 комфорт 1008.9 1001.9
21 14.07 штиль 0 20 км 10/0 2000 м
[Ac und]
+19.4 +12.1 63 +21 +21 комфорт 1008.2 1001.2
00 15.07 штиль 0 20 км 10/0 2000 м
[Ac und]
+16.5 +13.1 80 +16 +16 1007.6 1000.5
03 15.07 штиль 0 20 км ясно +16.4 +12.4 77 +16 +18 1007.3 1000.2 +15.0
06 15.07 В 3 20 км 6/0 2000 м
[Ac cast Cc]
+25.8 +12.1 42 +27 +34 жарко 1006.9 1000.0
09 15.07 В 3 20 км 8/8 600 м
[Cu med, cong]
+28.3 +9.3 30 +28 +31 жарко 1005.4 998.5
12 15.07 В 2 20 км 10/10 600 м
[Cb cap]
+28.5 +9.2 30 +28 +28 жарко 1004.4 997.5
15 15.07 штиль 0 20 км 10/10 600 м
[Cb cap]
+25.7 +11.6 41 +27 +27 жарко 1004.6 997.7 +28.7
18 15.07 штиль 0 10 км слаб. ливневой дождь 10/10 600 м
[Cb cap]
+18.8 +17.6 93 +20 +20 1005.7 998.7
21 15.07 штиль 0 20 км {ливн. осадки} 10/10 600 м
[Cb cap]
+17.9 +16.9 94 +18 +18 1006.1 999.0
00 16.07 штиль 0 10 км {ливн. осадки} 9/9 1000 м
[Cb cap]
+17.2 +16.5 96 +17 +17 1005.8 998.7
03 16.07 штиль 0 20 км 10/10 1000 м
[Cb cap]
+18.0 +16.8 93 +18 +18 1006.5 999.4 +17.0 3
06 16.07 ЮЗ 1 10 км в посл. час ливневой дождь 9/8 600 м
[Cb cap Ac As]
+21.1 +17.8 81 +25 +27 комфорт 1006.7 999.7
09 16.07 З 1 20 км {ливн. осадки} 8/3 600 м
[Cu med, cong Ac trans Ci fib]
+25.1 +14.5 52 +28 +37 жарко 1006.2 999.3
12 16.07 З 1
{11}
10 км гроза, ливневой дождь 10/10 600 м
[Cb cap]
+19.8 +17.4 86 +24 +24 комфорт 1007.0 1000.0
15 16.07 ЮЗ 5-10
{10}
20 км {гроза, ливн. осадки} 4/4 600 м
[Cb cap]
+24.0 +16.0 61 +27 +28 жарко 1006.2 999.3 +26.9 4
18 16.07 штиль 0
{11}
20 км {гроза, ливн. осадки} ясно +19.9 +14.6 72 +22 +22 комфорт 1008.6 1001.6
21 16.07 ЮЗ 2 20 км ясно +18.9 +15.0 78 +21 +21 комфорт 1009.1 1002.1
00 17.07 Ю 2 20 км 6/3 600 м
[Cb cap Ac cast]
+17.9 +16.0 89 +18 +18 1009.5 1002.4
03 17.07 ЮЗ 2 20 км ясно +17.6 +15.6 88 +18 +19 1009.7 1002.6 +17.1
06 17.07 З 1 20 км ясно +23.6 +16.0 62 +27 +39 жарко 1009.0 1002.1
09 17.07 СЗ 1 20 км 6/0
[Ci fib]
+28.0 +13.3 40 +30 +48 жарко 1007.9 1001.0
12 17.07 З 1 20 км 4/4 600 м
[Cb cap]
+30.2 +11.2 31 +31 +39 жарко 1007.2 1000.4
15 17.07 штиль 0 20 км 6/6 1000 м
[Cb cap]
+29.4 +11.2 32 +30 +31 жарко 1006.7 999.9 +31.4
18 17.07 штиль 0 20 км 3/0 2000 м
[Ac trans]
+23.5 +14.6 57 +26 +26 жарко 1007.3 1000.3
21 17.07 штиль 0 20 км 8/0 2000 м
[Ac lent]
+20.7 +15.3 71 +23 +23 комфорт 1007.1 1000.1
00 18.07 штиль 0 20 км 8/0 2000 м
[Ac lent]
+18.8 +15.3 80 +20 +20 1006.8 999.8
03 18.07 штиль 0 20 км 10/0 2000 м
[Ac lent]
+20.1 +14.9 72 +22 +23 комфорт 1007.3 1000.3 +18.7
06 18.07 В 2 20 км 10/0 2000 м
[Ac lent]
+25.6 +14.6 51 +28 +30 жарко 1007.1 1000.2
09 18.07 СЗ 1 10 км слаб. ливневой дождь 10/10 600 м
[Cb cap]
+20.3 +18.8 91 +25 +25 комфорт 1008.9 1001.9
12 18.07 СВ 1 1000 м гроза, ливневой дождь 10/10 600 м
[Cb cap]
+18.9 +18.3 96 +22 +22 комфорт 1009.2 1002.2
15 18.07 С 1 10 км в посл. час ливневой дождь {гроза} 10/10 600 м
[Cb cap]
+19.7 +18.4 92 +23 +23 комфорт 1010.0 1003.0 +27.7 15
18 18.07 В 1 20 км {гроза, ливн. осадки} 8/8 1000 м
[Cb cap]
+19.2 +17.7 91 +22 +22 комфорт 1011.1 1004.1

 

Местоположение метеостанции Красногвардейское (Ставропольский край, Россия): широта 45.83 долгота 41.48 высота над уровнем моря 60 м.

В архиве по умолчанию представлена погода в Красногвардейском за последнюю неделю. Архивные данные за месяц целиком и за предыдущие месяцы, начиная с января 2011 года, Вы можете получить, выбрав интересующий диапазон дат из раскрывающегося списка и нажав кнопку "Ввод!".


*Определитесь, кто Вы:
робот инопланетянин человек

Внимание! Время в таблицах - всемирное. Для получения местного времени необходимо прибавить поправку, которая равна 3 ч.

Смотрите также архив погоды в соседних городах и на ближайших метеорологических станциях:

Погода в Новоалександровске (Ставропольский край, Россия) (43 км)
Погода в Городовиковске (Калмыкия, Россия) (46 км)
Погода в Изобильном (Ставропольский край, Россия) (54 км)
Погода в Белой Глине (Краснодарский край, Россия) (54 км)
Погода в Гиганте (Ростовская область, Россия) (77 км)
Погода в Кропоткине (Краснодарский край, Россия) (84 км)
Погода в Ставрополе (Ставропольский край, Россия) (92 км)
Погода в Армавире (Краснодарский край, Россия) (99 км)
Погода в Тихорецке (Краснодарский край, Россия) (109 км)
Погода в Светлограде (Ставропольский край, Россия) (119 км)

Пояснения к столбцам:

Ветер - указаны скорость ветра в м/с - средняя за 10 мин, порывы в срок и между сроками (в фигурных скобках) и направление, откуда дует ветер: С - северный, СВ - северо-восточный, В - восточный, ЮВ - юго-восточный, Ю - южный, ЮЗ - юго-западный, З - западный, СЗ - северо-западный.
Видимость - горизонтальная дальность видимости в метрах или километрах. При видимости от 1 до 10 км при отсутствии осадков обычно наблюдается дымка, при ухудшении видимости до 1 км и менее - туман. В сухую погоду видимость может ухудшаться дымом, пылью или мглою.
Явления - указаны атмосферные явления, наблюдавшиеся в срок или в последний час перед сроком; фигурными скобками обозначены явления, наблюдавшиеся между сроками (за 1-3 часа до срока); квадратными скобками обозначены град или гололедные отложения с указанием их диаметра в мм.
Облачность - указаны через наклонную черту общая и нижняя облачность в баллах и высота нижней границы облаков в метрах; квадратными скобками обозначены формы облаков: Ci - перистые, Cs - перисто-слоистые, Cc - перисто-кучевые, Ac - высококучевые, As - высокослоистые, Sc - слоисто-кучевые, Ns - слоисто-дождевые, Cu - кучевые, Cb - кучево-дождевые. Подробнее классификацию облаков см. в Атласе облаков (PDF).
T - Температура воздуха - температура, измеренная на высоте 2 м над землей.
Td - Температура точки росы - температура, при понижении до которой содержащийся в воздухе водяной пар достигнет насыщения.
f - Относительная влажность воздуха - влажноcть воздуха, измеренная на высоте 2 м над землей.
Te - Эффективная температура - температура, которую ощущает одетый по сезону человек в тени. Характеристика душности погоды. При расчете учитывается влияние влажности воздуха и скорости ветра на теплоощущения человека.
Tes - Эффективная температура на солнце - температура, которую ощущает человек, с поправкой на солнечный нагрев. Характеристика знойности погоды. Зависит от высоты солнца над горизонтом, облачности и скорости ветра. Ночью, в пасмурную погоду, а также при ветре 12 м/с и более поправка равна нулю.
P - Атмосферное давление - приведенное к уровню моря атмосферное давление.
Po - Атмосферное давление - измеренное на уровне метеостанции атмосферное давление.
Tmin - Минимальная температура - минимум температуры воздуха на высоте 2 м над землей.
Tmax - Максимальная температура - максимум температуры воздуха на высоте 2 м над землей.
R - Количество осадков - Количество выпавших осадков за период времени, мм. При наведении курсора мыши на число - период времени, за который выпало указанное количество осадков.
R24 - Количество осадков - Количество выпавших осадков за 24 часа, мм.
S - Снежный покров - Высота снежного покрова, см. При наведении курсора мыши на число - состояние снежного покрова и степень покрытия местности в баллах.